Regional Weather Roundup
Issued by NWS

Home | Current Version | Previous Version | Graphics & Text | Print | Product List | Glossary On
Versions: 1 2 3 4 5 6 7 8 9 10 11 12 13 14 15 16 17 18 19 20 21 22 23 24 25 26 27 28 29 30 31 32 33 34 35 36 37 38 39 40 41 42 43 44 45 46 47 48 49 50
800
ASUS45 KCYS 070410
RWRWY

WYOMING REGIONAL WEATHER ROUNDUP
NATIONAL WEATHER SERVICE CHEYENNE WY
900 PM MST TUE DEC 06 2016

NOTE:  "FAIR" INDICATES FEW OR NO CLOUDS BELOW 12,000 FEET
WITH NO SIGNIFICANT WEATHER AND/OR OBSTRUCTIONS TO VISIBILITY.

WYZ001-070500-
YELLOWSTONE NATIONAL PARK

CITY           SKY/WX    TMP DP  RH WIND       PRES   REMARKS
LK YELLOWSTONE   N/A      4   1  88 CALM      29.75R
W YELLOWSTONE  NOT AVBL

$$
WYZ002>013-054>058-071-098>099-070500-
NORTHERN WYOMING

CITY           SKY/WX    TMP DP  RH WIND       PRES   REMARKS
JACKSON        CLOUDY    -2  -2 100 CALM      29.82S
CODY           LGT SNOW   5   1  83 N12       29.99R FOG     WCI -11
GREYBULL       FAIR      11   1  64 NW14      30.04R WCI  -5
WORLAND        FLURRIES  12   5  73 N9        30.03R WCI   0
SHERIDAN       CLOUDY     8   1  73 NW8       30.11R WCI  -4
BUFFALO        CLOUDY     6  -1  73 NW6       30.02R WCI  -4
GILLETTE       CLOUDY     0  -3  87 NW6       30.06R WCI -12
HULETT         FAIR       0  -4  85 MISG      30.06R
NEWCASTLE      FAIR       0  -6  78 NW8       30.06R WCI -15

$$
WYZ014>020-022>026-101>103-070500-
CENTRAL WYOMING

CITY           SKY/WX    TMP DP  RH WIND       PRES   REMARKS
BIG PINEY      CLOUDY     2  -2  83 NW6       29.79R WCI  -9
PINEDALE       CLOUDY     1  -4  78 NW5       29.79S WCI  -8
DUBOIS         CLOUDY     1  -4  78 S3        29.77R
LANDER         FAIR       7   1  76 W6        29.89R WCI  -3
RIVERTON       CLOUDY     6  -1  73 NE12      29.89S WCI  -9
CASPER         CLOUDY     5   1  83 N14       29.95R WCI -12
DOUGLAS        FAIR       4  -1  80 N13       29.99S WCI -13

$$
WYZ021-027>030-104>119-070500-
SOUTHERN WYOMING

CITY           SKY/WX    TMP DP  RH WIND       PRES   REMARKS
EVANSTON       FAIR       7   2  80 S6        29.78R WCI  -3
FORT BRIDGER   MOCLDY     6   4  94 SW9       29.80S WCI  -8
ROCK SPRINGS   CLOUDY     6   3  87 SW7       29.79R WCI  -6
DIXON          CLOUDY    17  12  80 CALM      29.79R
RAWLINS        CLOUDY     9  -3  58 N3        29.77R
SARATOGA       LGT SNOW  12   5  73 NW5       29.74S WCI   4
LARAMIE        FLURRIES  10   4  76 SE17G25   29.71F WCI  -8
CHEYENNE       LGT SNOW  13   8  81 E9        29.84F WCI   1
TORRINGTON     CLOUDY    13   3  64 N5        30.00R WCI   5
PINE BLUFFS    CLOUDY    18   9  68 NE6       29.93R WCI   9

$$




USA.gov is the U.S. government's official web portal to all federal, state and local government web resources and services.